Fairmont, MN

5:53 PM CST on December 17, 2017 (GMT -0600)
Fairmont Municipal

Weather History for KFRM - May, 2014

Change the Weather History Date:

Saturday, May 17, 2014

  Actual Average Record
Temperature  
Mean Temperature 52 °F -  
Max Temperature 66 °F 72 °F 91 °F (1987)
Min Temperature 37 °F 50 °F 37 °F (2007)
Degree Days  
Heating Degree Days 14    
Growing Degree Days 2 (Base 50)    
Moisture  
Dew Point 28 °F    
Average Humidity 39    
Maximum Humidity 65    
Minimum Humidity 26    
Precipitation  
Precipitation 0.00 in - - ()
Sea Level Pressure  
Sea Level Pressure 30.07 in    
Wind  
Wind Speed 9 mph (West)    
Max Wind Speed 18 mph    
Max Gust Speed 28 mph    
Visibility 10 miles    
Events      
Averages and records for this station are not official NWS values.
T = Trace of Precipitation, MM = Missing Value Source: NWS Daily Summary

Daily Weather History Graph

Daily Weather History Graph

Search for Another Location

Airport or City:

Trip Planner

Search our weather history database for the weather conditions in past years. The results will help you decide how hot, cold, wet, or windy it might be!

Date:

Astronomy

May. 17, 2014 Rise Set
Actual Time 5:50 AM CDT 8:38 PM CDT
Civil Twilight 5:17 AM CDT 9:11 PM CDT
Nautical Twilight 4:35 AM CDT 9:54 PM CDT
Astronomical Twilight 3:46 AM CDT 10:43 PM CDT
Moon 11:38 PM CDT 8:34 AM CDT
Length of Visible Light 15h 54m
Length of Day
14h 47m
Waning Gibbous, 89% of the Moon is Illuminated
May 17
Waning Gibbous
May 21
Last Quarter
May 28
New
Jun 5
First Quarter
Jun 12
Full

Hourly Weather History & Observations

Time (CDT) Temp. Windchill Dew Point Humidity Pressure Visibility Wind Dir Wind Speed Gust Speed Precip Events Conditions
12:15 AM 42.8 °F 39.3 °F 28.4 °F 57% 30.10 in 10.0 mi WSW 5.8 mph - N/A   Clear
12:35 AM 41.0 °F 37.1 °F 28.4 °F 61% 30.10 in 10.0 mi SW 5.8 mph - N/A   Clear
12:55 AM 42.8 °F 39.3 °F 28.4 °F 57% 30.10 in 10.0 mi SW 5.8 mph - N/A   Clear
1:15 AM 41.0 °F 38.0 °F 28.4 °F 61% 30.10 in 10.0 mi WSW 4.6 mph - N/A   Clear
1:35 AM 39.2 °F 35.9 °F 28.4 °F 65% 30.09 in 10.0 mi SW 4.6 mph - N/A   Clear
1:55 AM 39.2 °F 35.0 °F 28.4 °F 65% 30.09 in 10.0 mi SW 5.8 mph - N/A   Clear
2:15 AM 39.2 °F 35.0 °F 26.6 °F 61% 30.09 in 10.0 mi SW 5.8 mph - N/A   Clear
2:35 AM 37.4 °F 32.1 °F 26.6 °F 65% 30.09 in 10.0 mi WSW 6.9 mph - N/A   Clear
2:55 AM 39.2 °F 34.2 °F 26.6 °F 61% 30.09 in 10.0 mi WSW 6.9 mph - N/A   Clear
3:15 AM 39.2 °F 33.0 °F 24.8 °F 56% 30.09 in 10.0 mi WSW 9.2 mph - N/A   Clear
3:35 AM 39.2 °F 33.0 °F 24.8 °F 56% 30.09 in 10.0 mi WSW 9.2 mph - N/A   Clear
3:55 AM 39.2 °F 33.6 °F 24.8 °F 56% 30.08 in 10.0 mi WSW 8.1 mph - N/A   Clear
4:15 AM 39.2 °F 33.6 °F 24.8 °F 56% 30.09 in 10.0 mi WSW 8.1 mph - N/A   Scattered Clouds
4:35 AM 39.2 °F 33.0 °F 24.8 °F 56% 30.09 in 10.0 mi WSW 9.2 mph - N/A   Mostly Cloudy
4:55 AM 41.0 °F 35.2 °F 26.6 °F 57% 30.09 in 10.0 mi WSW 9.2 mph - N/A   Overcast
5:15 AM 41.0 °F 35.2 °F 26.6 °F 57% 30.09 in 10.0 mi WSW 9.2 mph - N/A   Overcast
5:35 AM 41.0 °F 35.2 °F 24.8 °F 53% 30.09 in 10.0 mi WSW 9.2 mph - N/A   Overcast
5:55 AM 41.0 °F 37.1 °F 24.8 °F 53% 30.09 in 10.0 mi WSW 5.8 mph - N/A   Overcast
6:15 AM 42.8 °F 36.6 °F 24.8 °F 49% 30.09 in 10.0 mi WSW 11.5 mph - N/A   Overcast
6:35 AM 42.8 °F 38.0 °F 24.8 °F 49% 30.09 in 10.0 mi WSW 8.1 mph - N/A   Overcast
6:55 AM 42.8 °F 38.0 °F 26.6 °F 53% 30.10 in 10.0 mi WSW 8.1 mph - N/A   Mostly Cloudy
7:15 AM 44.6 °F 39.2 °F 26.6 °F 49% 30.10 in 10.0 mi WSW 10.4 mph - N/A   Mostly Cloudy
7:35 AM 46.4 °F 42.4 °F 26.6 °F 46% 30.10 in 10.0 mi WSW 8.1 mph - N/A   Scattered Clouds
7:55 AM 48.2 °F - 26.6 °F 43% 30.10 in 10.0 mi West 10.4 mph - N/A   Mostly Cloudy
8:15 AM 50.0 °F - 26.6 °F 40% 30.10 in 10.0 mi WSW 10.4 mph - N/A   Mostly Cloudy
8:35 AM 51.8 °F - 26.6 °F 38% 30.10 in 10.0 mi WSW 12.7 mph - N/A   Partly Cloudy
8:55 AM 53.6 °F - 26.6 °F 35% 30.10 in 10.0 mi WSW 10.4 mph - N/A   Clear
9:15 AM 55.4 °F - 26.6 °F 33% 30.10 in 10.0 mi WSW 17.3 mph 23.0 mph N/A   Clear
9:35 AM 55.4 °F - 26.6 °F 33% 30.10 in 10.0 mi WSW 16.1 mph - N/A   Scattered Clouds
9:55 AM 55.4 °F - 24.8 °F 31% 30.09 in 10.0 mi WSW 17.3 mph 21.9 mph N/A   Mostly Cloudy
10:15 AM 57.2 °F - 24.8 °F 29% 30.09 in 10.0 mi WSW 15.0 mph 21.9 mph N/A   Mostly Cloudy
10:35 AM 57.2 °F - 24.8 °F 29% 30.09 in 10.0 mi WSW 16.1 mph - N/A   Partly Cloudy
10:55 AM 59.0 °F - 26.6 °F 29% 30.08 in 10.0 mi West 17.3 mph 21.9 mph N/A   Clear
11:15 AM 60.8 °F - 28.4 °F 29% 30.08 in 10.0 mi West 13.8 mph 20.7 mph N/A   Clear
11:35 AM 60.8 °F - 28.4 °F 29% 30.07 in 10.0 mi West 11.5 mph 23.0 mph N/A   Scattered Clouds
11:55 AM 62.6 °F - 28.4 °F 27% 30.07 in 10.0 mi WNW 18.4 mph - N/A   Mostly Cloudy
12:15 PM 62.6 °F - 28.4 °F 27% 30.06 in 10.0 mi West 16.1 mph 19.6 mph N/A   Mostly Cloudy
12:35 PM 62.6 °F - 30.2 °F 30% 30.06 in 10.0 mi WNW 15.0 mph 21.9 mph N/A   Overcast
12:55 PM 62.6 °F - 30.2 °F 30% 30.05 in 10.0 mi West 13.8 mph - N/A   Overcast
1:15 PM 62.6 °F - 30.2 °F 30% 30.05 in 10.0 mi West 15.0 mph 23.0 mph N/A   Mostly Cloudy
1:35 PM 64.4 °F - 30.2 °F 28% 30.04 in 10.0 mi WNW 11.5 mph - N/A   Mostly Cloudy
1:55 PM 62.6 °F - 30.2 °F 30% 30.04 in 10.0 mi NW 13.8 mph 21.9 mph N/A   Overcast
2:15 PM 62.6 °F - 30.2 °F 30% 30.04 in 10.0 mi WNW 13.8 mph - N/A   Overcast
2:35 PM 64.4 °F - 30.2 °F 28% 30.03 in 10.0 mi NW 13.8 mph - N/A   Overcast
2:55 PM 64.4 °F - 30.2 °F 28% 30.03 in 10.0 mi WNW 10.4 mph - N/A   Overcast
3:15 PM 64.4 °F - 28.4 °F 26% 30.03 in 10.0 mi West 16.1 mph 19.6 mph N/A   Overcast
3:35 PM 64.4 °F - 28.4 °F 26% 30.03 in 10.0 mi WNW 15.0 mph - N/A   Overcast
3:55 PM 64.4 °F - 30.2 °F 28% 30.03 in 10.0 mi NW 10.4 mph 27.6 mph N/A   Overcast
4:15 PM 64.4 °F - 28.4 °F 26% 30.03 in 10.0 mi WNW 15.0 mph 25.3 mph N/A   Overcast
4:35 PM 66.2 °F - 30.2 °F 26% 30.02 in 10.0 mi West 11.5 mph - N/A   Scattered Clouds
4:55 PM 64.4 °F - 30.2 °F 28% 30.02 in 10.0 mi West 17.3 mph - N/A   Mostly Cloudy
5:15 PM 64.4 °F - 28.4 °F 26% 30.02 in 10.0 mi West 17.3 mph 20.7 mph N/A   Overcast
5:35 PM 62.6 °F - 30.2 °F 30% 30.04 in 10.0 mi NW 3.5 mph 27.6 mph N/A   Overcast
5:55 PM 62.6 °F - 32.0 °F 32% 30.03 in 10.0 mi North 15.0 mph 25.3 mph N/A   Overcast
6:15 PM 62.6 °F - 30.2 °F 30% 30.03 in 10.0 mi North 4.6 mph 24.2 mph N/A   Overcast
6:35 PM 62.6 °F - 33.8 °F 34% 30.03 in 10.0 mi WSW 13.8 mph 18.4 mph N/A   Overcast
6:55 PM 64.4 °F - 30.2 °F 28% 30.02 in 10.0 mi NW 10.4 mph 16.1 mph N/A   Mostly Cloudy
7:15 PM 64.4 °F - 30.2 °F 28% 30.03 in 10.0 mi WNW 9.2 mph - N/A   Mostly Cloudy
7:35 PM 62.6 °F - 30.2 °F 30% 30.03 in 10.0 mi West 6.9 mph - N/A   Overcast
7:55 PM 62.6 °F - 30.2 °F 30% 30.03 in 10.0 mi WNW 10.4 mph - N/A   Mostly Cloudy
8:15 PM 62.6 °F - 30.2 °F 30% 30.03 in 10.0 mi WNW 8.1 mph - N/A   Overcast
8:35 PM 62.6 °F - 28.4 °F 27% 30.03 in 10.0 mi WSW 9.2 mph - N/A   Mostly Cloudy
8:55 PM 60.8 °F - 28.4 °F 29% 30.04 in 10.0 mi WSW 6.9 mph - N/A   Overcast
9:15 PM 60.8 °F - 30.2 °F 31% 30.04 in 10.0 mi SW 6.9 mph - N/A   Overcast
9:35 PM 59.0 °F - 30.2 °F 34% 30.05 in 10.0 mi SW 6.9 mph - N/A   Overcast
9:55 PM 57.2 °F - 32.0 °F 38% 30.05 in 10.0 mi SW 8.1 mph - N/A   Overcast
10:15 PM 57.2 °F - 32.0 °F 38% 30.06 in 10.0 mi WSW 9.2 mph - N/A   Overcast
10:35 PM 55.4 °F - 30.2 °F 38% 30.06 in 10.0 mi WSW 9.2 mph - N/A   Mostly Cloudy
10:55 PM 55.4 °F - 30.2 °F 38% 30.06 in 10.0 mi SW 6.9 mph - N/A   Mostly Cloudy
11:15 PM 53.6 °F - 30.2 °F 41% 30.07 in 10.0 mi WSW 10.4 mph - N/A   Partly Cloudy
11:35 PM 53.6 °F - 30.2 °F 41% 30.07 in 10.0 mi SW 10.4 mph - N/A   Clear
11:55 PM 51.8 °F - 30.2 °F 44% 30.07 in 10.0 mi SW 9.2 mph - N/A   Clear